This website is under construction - Deze website is in opbouw - Ce site est en construction - Diese Website ist im Aufbau.
Please return later. Schauen Sie bitte später nochmals an.  S'il vous plaît revenir plus tard.  Komt u straks nog eens terug
Het weer levert geen direct gevaar op.    Er zijn geen waarschuwingen afgegeven.


webcam Wortegem (ovl-BE) more information webcam Wortegem (ovl-BE)


Onweer radar more information blitzortung!


Regen radar more information rain snow radar


Bezoek onze andere website:

Template documentation
and downloads

And another site



15 daagse weersverwachting Wortegem-Petegem (BE)

  • Overzicht
  • Per uur
  • 15 dagen
  • Extra
  • Vergelijk
  • Kaarten
  • Dagkaart
  • Meer »
  • Info
  • Statistieken
  • Directe link
    Temp 6h Neerslag Wind  
 08:16     18:46    Daglengte: 10:30 Vandaag
08:00
11°
 
2
14:00
19°
 
3
20:00
17°
 
3
 08:18     18:44    Daglengte: 10:26 Morgen
02:00
14°
 
3
08:00
12°
 
4
14:00
19°
 
6
20:00
17°
 
4
 08:20     18:42    Daglengte: 10:22 Vrijdag 20 Okt
02:00
16°
 
5
08:00
15°
 
8
14:00
18°
2.0 mm
8
20:00
13°
5.2 mm
4
 08:21     18:40    Daglengte: 10:19 Zaterdag 21 Okt
02:00
11°
7.3 mm
5
Locatie info
Region: Flandern
Latitude: 50.8520°N
Longitude: 3.5104°E
0 masl
Postcode: 9790
Temp/Neerslag /Baro Onweer/Dauwpunt
    Temp Baro 1h Neerslag Dauwpunt Wind UV Bewolking  
 08:16     18:46    Daglengte: 10:30 Vandaag
06:00
12°
1012.8 hPa   11.2°
3
Windvlaag: -0.2 m/s
10%
07:00
11°
1012.5 hPa   10.8°
2
Windvlaag: 0.1 m/s
11%
08:00
11°
1012.0 hPa   10.6°
2
Windvlaag: 0.7 m/s
17%
09:00
11°
1012.0 hPa   10.5°
3
Windvlaag: 1.5 m/s
14%
10:00
12°
1012.0 hPa   10.6°
3
Windvlaag: 2.3 m/s
13%
11:00
14°
1011.8 hPa   11.1°
3
Windvlaag: 5.7 m/s
12%
12:00
16°
1011.6 hPa   11.7°
4
Windvlaag: 6.4 m/s
13%
13:00
18°
1011.4 hPa   12.8°
3
Windvlaag: 6.5 m/s
14%
14:00
19°
1011.0 hPa   13.5°
3
Windvlaag: 6.2 m/s
18%
15:00
20°
1010.8 hPa   14.0°
4
Windvlaag: 6.4 m/s
19%
16:00
21°
1010.2 hPa   14.2°
4
Windvlaag: 6.4 m/s
19%
17:00
21°
1009.9 hPa   14.0°
4
Windvlaag: 5.8 m/s
18%
18:00
20°
1009.7 hPa   13.4°
3
Windvlaag: 4.9 m/s
17%
19:00
18°
1009.9 hPa   13.0°
3
Windvlaag: 4 m/s
17%
20:00
17°
1009.8 hPa   13.5°
3
Windvlaag: 3.5 m/s
18%
21:00
17°
1009.7 hPa   13.4°
3
Windvlaag: 3.5 m/s
17%
22:00
16°
1009.6 hPa   13.2°
3
Windvlaag: 3.5 m/s
17%
23:00
15°
1009.6 hPa   12.9°
3
Windvlaag: 3.5 m/s
18%
 08:18     18:44    Daglengte: 10:26 Morgen
00:00
14°
1009.5 hPa   12.2°
3
Windvlaag: 4 m/s
16%
01:00
14°
1009.4 hPa   11.5°
3
Windvlaag: 5 m/s
17%
02:00
14°
1008.8 hPa   11.2°
3
Windvlaag: 5 m/s
14%
03:00
13°
1008.0 hPa   11.2°
3
Windvlaag: 4.4 m/s
11%
04:00
13°
1007.5 hPa   11.3°
3
Windvlaag: 3.9 m/s
3%
05:00
13°
1006.9 hPa   11.0°
3
Windvlaag: 3.4 m/s
4%
06:00
13°
1006.6 hPa   9.7°
4
Windvlaag: 3.1 m/s
3%
07:00
12°
1006.6 hPa   9.6°
4
Windvlaag: 3 m/s
3%
08:00
12°
1006.4 hPa   10.0°
4
Windvlaag: 2.2 m/s
3%
09:00
13°
1006.3 hPa   10.6°
4
Windvlaag: 3.3 m/s
10%
10:00
14°
1006.5 hPa   11.2°
5
Windvlaag: 6.5 m/s
5%
11:00
16°
1006.7 hPa   10.7°
5
Windvlaag: 7.8 m/s
3%
12:00
17°
1006.4 hPa   10.7°
5
Windvlaag: 7.8 m/s
5%
13:00
18°
1005.9 hPa   11.4°
5
Windvlaag: 8.2 m/s
12%
14:00
19°
1005.5 hPa   12.3°
6
Windvlaag: 9.3 m/s
7%
15:00
20°
1005.0 hPa   13.0°
6
Windvlaag: 9.5 m/s
13%
16:00
20°
1004.5 hPa   13.0°
6
Windvlaag: 9.6 m/s
19%
17:00
20°
1004.0 hPa   12.8°
6
Windvlaag: 9.7 m/s
17%
18:00
20°
1003.7 hPa   12.3°
5
Windvlaag: 8.9 m/s
14%
19:00
17°
1003.8 hPa   11.3°
4
Windvlaag: 8.3 m/s
15%
20:00
17°
1004.0 hPa   12.0°
4
Windvlaag: 9.1 m/s
17%
21:00
17°
1003.9 hPa   12.6°
4
Windvlaag: 8.4 m/s
15%
22:00
17°
1004.2 hPa
20%
13.6°
5
Windvlaag: 7.3 m/s
18%
23:00
17°
1008.8 hPa
100%
14.4°
4
Windvlaag: 7 m/s
74%
 08:20     18:42    Daglengte: 10:22 Vrijdag 20 Okt
00:00
17°
1008.5 hPa
100%
15.0°
4
Windvlaag: 6.5 m/s
30%
01:00
16°
1008.2 hPa
100%
15.0°
5
Windvlaag: 7.1 m/s
35%
02:00
16°
1007.8 hPa
100%
14.8°
5
Windvlaag: 7 m/s
58%
03:00
16°
1007.7 hPa
100%
14.6°
5
Windvlaag: 8.5 m/s
77%
04:00
16°
1007.5 hPa
100%
14.4°
5
Windvlaag: 9.6 m/s
80%
05:00
16°
1007.2 hPa
100%
13.7°
6
Windvlaag: 10.3 m/s
80%
06:00
15°
1006.9 hPa
100%
13.8°
6
Windvlaag: 10.7 m/s
80%
07:00
16°
1006.9 hPa
100%
13.9°
7
Windvlaag: 11.7 m/s
49%
08:00
15°
1007.0 hPa
100%
14.1°
8
Windvlaag: 12.6 m/s
0%
09:00
14°
1005.8 hPa 0.3 mm
100%
12.7°
6
Windvlaag: 12.7 m/s
0%
10:00
16°
1006.2 hPa 0.3 mm
100%
12.5°
7
Windvlaag: 13.4 m/s
0%
11:00
17°
1006.1 hPa 0.3 mm
100%
12.2°
7
Windvlaag: 13.9 m/s
0%
12:00
17°
1006.2 hPa 0.3 mm
100%
12.4°
8
Windvlaag: 12.8 m/s
0%
13:00
18°
1006.0 hPa 0.4 mm
100%
12.2°
8
Windvlaag: 11.6 m/s
0%
14:00
18°
1006.1 hPa 0.4 mm
100%
12.0°
8
Windvlaag: 11.2 m/s
0%
15:00
18°
1006.0 hPa 0.5 mm
100%
13.1°
9
Windvlaag: 11.9 m/s
0%
16:00
16°
1006.8 hPa 1.1 mm
100%
13.6°
7
Windvlaag: 12.3 m/s
0%
17:00
17°
1007.0 hPa 1.2 mm
100%
12.1°
8
Windvlaag: 10.9 m/s
0%
18:00
16°
1007.8 hPa 1.2 mm
100%
11.0°
6
Windvlaag: 10.5 m/s
0%
19:00
14°
1008.7 hPa 1.2 mm
100%
10.1°
4
Windvlaag: 10 m/s
0%
20:00
13°
1009.4 hPa   9.9°
4
Windvlaag: 10.9 m/s
0%
21:00
12°
1009.9 hPa 1.2 mm
100%
9.2°
3
Windvlaag: 11.1 m/s
0%
22:00
11°
1009.9 hPa 1.2 mm
100%
9.0°
3
Windvlaag: 9.5 m/s
0%
23:00
12°
1009.7 hPa 1.2 mm
100%
9.5°
4
Windvlaag: 8.6 m/s
0%
 08:21     18:40    Daglengte: 10:19 Zaterdag 21 Okt
00:00
11°
1009.6 hPa 1.2 mm
100%
8.6°
4
Windvlaag: 11.1 m/s
0%
01:00
11°
1009.2 hPa 1.2 mm
100%
7.9°
5
Windvlaag: 13.3 m/s
0%
02:00
11°
1008.6 hPa 1.2 mm
100%
7.7°
5
Windvlaag: 13.8 m/s
0%
03:00
11°
1008.0 hPa 1.2 mm
100%
7.8°
5
Windvlaag: 14.1 m/s
0%
04:00
11°
1007.3 hPa 1.2 mm
100%
8.0°
6
Windvlaag: 15.9 m/s
0%
05:00
12°
1006.5 hPa 1.2 mm
100%
8.0°
7
Windvlaag: 16.3 m/s
0%
Temp/Neerslag /Baro Onweer/Dauwpunt
    Temp Baro Neerslag Dauwpunt Wind Bewolking  
 08:16     18:46    Daglengte: 10:30 Vandaag
08:00
11°
1012.0 hPa   10.6°
2
17%
11:00
14°
1011.8 hPa   11.1°
3
12%
14:00
19°
1011.0 hPa   13.5°
3
18%
17:00
21°
1009.9 hPa   14.0°
4
18%
20:00
17°
1009.8 hPa   13.5°
3
18%
23:00
15°
1009.6 hPa   12.9°
3
18%
 08:18     18:44    Daglengte: 10:26 Morgen
02:00
14°
1008.8 hPa   11.2°
3
14%
05:00
13°
1006.9 hPa   11.0°
3
4%
08:00
12°
1006.4 hPa   10.0°
4
3%
11:00
16°
1006.7 hPa   10.7°
5
3%
14:00
19°
1005.5 hPa   12.3°
6
7%
17:00
20°
1004.0 hPa   12.8°
6
17%
20:00
17°
1004.0 hPa   12.0°
4
17%
23:00
17°
1008.8 hPa   14.4°
4
74%
 08:20     18:42    Daglengte: 10:22 Vrijdag 20 Okt
02:00
16°
1007.8 hPa   14.8°
5
58%
05:00
16°
1007.2 hPa   13.7°
6
80%
08:00
15°
1007.0 hPa   14.1°
8
0%
11:00
17°
1006.1 hPa 1.0 mm 12.2°
7
0%
14:00
18°
1006.1 hPa 1.0 mm 12.0°
8
0%
17:00
17°
1007.0 hPa 2.8 mm 12.1°
8
0%
20:00
13°
1009.4 hPa 2.4 mm 9.9°
4
0%
23:00
12°
1009.7 hPa 3.6 mm 9.5°
4
0%
 08:21     18:40    Daglengte: 10:19 Zaterdag 21 Okt
02:00
11°
1008.6 hPa 3.6 mm 7.7°
5
0%
05:00
12°
1006.5 hPa 3.6 mm 8.0°
7
0%
08:00
13°
1006.3 hPa 5.5 mm 10.0°
8
0%
11:00
15°
1008.5 hPa 1.0 mm 11.8°
6
1%
14:00
16°
1008.6 hPa 1.0 mm 8.8°
10
1%
17:00
16°
1008.1 hPa   7.5°
9
0%
20:00
14°
1008.8 hPa   5.4°
8
0%
23:00
13°
1009.6 hPa   5.6°
9
0%
 08:23     18:38    Daglengte: 10:15 Zondag 22 Okt
02:00
12°
1010.6 hPa   6.4°
9
0%
05:00
11°
1011.1 hPa 0.2 mm 7.1°
8
1%
08:00
10°
1012.7 hPa 0.3 mm 6.2°
7
1%
11:00
12°
1015.5 hPa   5.9°
7
1%
14:00
13°
1017.3 hPa   3.4°
8
0%
17:00
13°
1018.8 hPa   4.7°
5
0%
20:00
11°
1020.6 hPa 0.4 mm 5.9°
4
1%
23:00
Voelt als: 6.7°
1021.8 hPa   5.8°
4
0%
 08:25     18:36    Daglengte: 10:11 Maandag 23 Okt
02:00
Voelt als: 6.0°
1021.9 hPa   6.5°
5
1%
05:00
Voelt als: 6.6°
1021.7 hPa   7.6°
6
1%
08:00
10°
1021.5 hPa 0.8 mm 7.8°
6
1%
11:00
11°
1021.6 hPa 3.1 mm 8.0°
7
1%
14:00
12°
1020.7 hPa 3.4 mm 9.5°
8
1%
17:00
13°
1019.7 hPa   10.2°
6
1%
20:00
13°
1019.5 hPa   10.2°
6
1%
23:00
13°
1019.3 hPa   9.9°
6
1%
 08:26     18:34    Daglengte: 10:08 Dinsdag 24 Okt
02:00
12°
1018.6 hPa   9.9°
6
1%
05:00
11°
1018.1 hPa   9.4°
6
1%
08:00
10°
Voelt als: 7.3°
1017.8 hPa   8.2°
6
1%
11:00
12°
1018.3 hPa   8.2°
6
1%
14:00
16°
1017.6 hPa   8.9°
5
1%
17:00
16°
1016.8 hPa   9.9°
4
1%
20:00
13°
1017.3 hPa   8.9°
3
1%
23:00
12°
1017.4 hPa   7.9°
3
1%
 08:28     18:33    Daglengte: 10:05 Woensdag 25 Okt
02:00
12°
1016.5 hPa   7.1°
3
1%
05:00
11°
1015.7 hPa   6.6°
4
1%
08:00
10°
Voelt als: 7.6°
1015.7 hPa   6.1°
4
1%
14:00
17°
1016.1 hPa   9.9°
5
1%
20:00
13°
1016.9 hPa   10.8°
3
1%
 08:30     18:31    Daglengte: 10:01 Donderdag 26 Okt
02:00
12°
1016.6 hPa   9.3°
4
1%
08:00
13°
1014.8 hPa   7.0°
5
1%
14:00
19°
1014.1 hPa   11.5°
6
1%
20:00
16°
1011.1 hPa   12.0°
5
1%
 08:32     18:29    Daglengte: 9:57 Vrijdag 27 Okt
02:00
16°
1010.0 hPa   11.6°
5
1%
08:00
16°
1011.0 hPa 0.2 mm 13.9°
5
1%
14:00
18°
1013.4 hPa   11.8°
6
0%
20:00
13°
1014.6 hPa 0.7 mm 10.8°
3
0%
 08:33     18:27    Daglengte: 9:54 Zaterdag 28 Okt
02:00
12°
1013.9 hPa 0.9 mm 9.9°
3
0%
08:00
11°
1012.5 hPa 1.1 mm 8.9°
3
0%
14:00
15°
1011.7 hPa 0.8 mm 9.8°
4
0%
20:00
12°
1009.9 hPa 0.3 mm 9.2°
3
0%
 08:35     18:25    Daglengte: 9:50 Zondag 29 Okt
02:00
11°
1009.2 hPa 0.9 mm 8.8°
3
0%
07:00
10°
1008.8 hPa 0.9 mm 7.8°
3
0%
13:00
14°
1009.9 hPa 0.3 mm 8.5°
3
0%
19:00
11°
1010.8 hPa 0.6 mm 7.9°
2
0%
 08:37     18:23    Daglengte: 9:46 Maandag 30 Okt
01:00
10°
Voelt als: 8.4°
1011.8 hPa 0.2 mm 7.2°
2
0%
07:00
Voelt als: 7.7°
1011.8 hPa 0.6 mm 6.9°
2
0%
13:00
13°
1012.8 hPa 0.6 mm 8.1°
3
0%
19:00
10°
1013.6 hPa 0.5 mm 7.3°
2
0%
 08:38     18:21    Daglengte: 9:43 Dinsdag 31 Okt
01:00
Voelt als: 7.8°
1014.5 hPa 0.3 mm 6.9°
3
0%
07:00
Voelt als: 6.9°
1014.2 hPa 0.2 mm 6.6°
3
0%
13:00
13°
1013.9 hPa 0.4 mm 8.1°
3
0%
19:00
10°
1013.1 hPa 0.7 mm 7.1°
2
0%
 08:40     18:20    Daglengte: 9:40 Woensdag 01 Nov
01:00
Voelt als: 7.3°
1013.0 hPa 0.9 mm 6.3°
3
0%
07:00
Voelt als: 6.5°
1012.1 hPa 0.8 mm 5.8°
2
0%
13:00
13°
1011.9 hPa 0.7 mm 7.5°
3
0%
19:00
10°
Voelt als: 8.6°
1011.3 hPa 1.2 mm 7.0°
2
0%
 08:42     18:18    Daglengte: 9:36 Donderdag 02 Nov
01:00
Voelt als: 6.8°
1010.7 hPa 0.5 mm 6.1°
2
0%
  CAPE Lifted Index Hail Supercell Tornado SRH 3km CL BTM PRES CL TOP PRES Swiss DWD icon SMHI TS
 08:16     18:46    Daglengte: 10:30 Vandaag
06:00 0 J/kg 0.0 K 0 % 0 % 0 % 0 m²/s² 0 0 5.25
07:00 0 J/kg 0.0 K 0 % 0 % 0 % 0 m²/s² 0 0 5.55
08:00 0 J/kg 0.0 K 0 % 0 % 0 % 0 m²/s² 0 0 5.85
09:00 0 J/kg 0.7 K 0 % 0 % 0 % 0 m²/s² 0 0 6.4
10:00 0 J/kg 2.1 K 0 % 0 % 0 % 0 m²/s² 0 0 7.5
11:00 0 J/kg 1.9 K 0 % 0 % 0 % 0 m²/s² 0 0 7
12:00 0 J/kg -0.4 K 0 % 0 % 0 % 0 m²/s² 0 0 3.65
13:00 0 J/kg -0.8 K 0 % 0 % 0 % 0 m²/s² 0 0 1.33
14:00 0 J/kg 0.3 K 0 % 0 % 0 % 0 m²/s² 0 0 0.96
15:00 5 J/kg 0.3 K 0 % 0 % 0 % 0 m²/s² 0 0 0.99
16:00 37 J/kg -0.3 K 0 % 0 % 0 % 0 m²/s² 0 0 1.05
17:00 102 J/kg -0.6 K 0 % 0 % 0 % 0 m²/s² 0 0 1.53
18:00 162 J/kg -0.8 K 0 % 0 % 0 % 0 m²/s² 0 0 1.66
19:00 135 J/kg -0.5 K 0 % 0 % 0 % 0 m²/s² 0 0 1.84
20:00 70 J/kg 0.0 K 0 % 0 % 0 % 0 m²/s² 0 0 1.8
21:00 18 J/kg 0.1 K 0 % 0 % 0 % 0 m²/s² 0 0 1.03
22:00 0 J/kg 0.1 K 0 % 0 % 0 % 0 m²/s² 0 0 1.15
23:00 0 J/kg 0.0 K 0 % 0 % 0 % 0 m²/s² 0 0 2.13
 08:18     18:44    Daglengte: 10:26 Morgen
00:00 0 J/kg 0.6 K 0 % 0 % 0 % 0 m²/s² 0 0 3.09
01:00 0 J/kg 0.6 K 0 % 0 % 0 % 0 m²/s² 0 0 2.85
02:00 0 J/kg 1.0 K 0 % 0 % 0 % 0 m²/s² 0 0 2.92
03:00 0 J/kg 1.0 K 0 % 0 % 0 % 0 m²/s² 0 0 2.5
04:00 0 J/kg 1.6 K 0 % 0 % 0 % 0 m²/s² 0 0 2.95
05:00 0 J/kg 2.0 K 0 % 0 % 0 % 0 m²/s² 0 0 3.23
06:00 0 J/kg 2.6 K 0 % 0 % 0 % 0 m²/s² 0 0 4.28
07:00 0 J/kg 2.6 K 0 % 0 % 0 % 0 m²/s² 0 0 4.16
08:00 0 J/kg 1.7 K 0 % 0 % 0 % 0 m²/s² 0 0 3.29
09:00 0 J/kg 0.6 K 0 % 0 % 0 % 0 m²/s² 0 0 2.19
10:00 0 J/kg -0.4 K 0 % 0 % 0 % 0 m²/s² 0 0 1.61
11:00 0 J/kg -1.1 K 0 % 0 % 0 % 0 m²/s² 0 0 0.37
12:00 0 J/kg -0.3 K 0 % 0 % 0 % 0 m²/s² 0 0 0.84
13:00 0 J/kg -0.1 K 0 % 0 % 0 % 0 m²/s² 0 0 0.98
14:00 0 J/kg -0.2 K 0 % 0 % 0 % 0 m²/s² 0 0 0.85
15:00 92 J/kg -0.5 K 0 % 0 % 0 % 0 m²/s² 0 0 0.1
16:00 112 J/kg -0.3 K 0 % 0 % 0 % 0 m²/s² 0 0 0.45
17:00 89 J/kg -0.1 K 0 % 0 % 0 % 0 m²/s² 0 0 1.16
18:00 55 J/kg 0.2 K 0 % 0 % 0 % 0 m²/s² 0 0 1.85
19:00 50 J/kg 0.6 K 0 % 0 % 0 % 0 m²/s² 0 0 3.09
20:00 66 J/kg 0.3 K 0 % 0 % 0 % 0 m²/s² 0 0 2.31
21:00 79 J/kg 0.4 K 0 % 0 % 0 % 0 m²/s² 0 0 2.08
22:00 70 J/kg -0.1 K 0 % 0 % 0 % 0 m²/s² 0 0 1.07
23:00 66 J/kg 0.0 K 0 % 0 % 0 % 0 m²/s² 0 0 1.5
 08:20     18:42    Daglengte: 10:22 Vrijdag 20 Okt
00:00 30 J/kg 0.5 K 0 % 0 % 0 % 0 m²/s² 0 0 2.42
01:00 15 J/kg 0.7 K 0 % 0 % 0 % 0 m²/s² 0 0 2.62
02:00 17 J/kg 1.0 K 0 % 0 % 0 % 0 m²/s² 0 0 2.86
03:00 0 J/kg 0.8 K 0 % 0 % 0 % 0 m²/s² 0 0 2.36
04:00 0 J/kg 1.7 K 0 % 0 % 0 % 0 m²/s² 0 0 3.26
05:00 0 J/kg 1.9 K 0 % 0 % 0 % 0 m²/s² 0 0 3.34
06:00 0 J/kg 2.1 K 0 % 0 % 0 % 0 m²/s² 0 0 3.18
07:00 0 J/kg 1.0 K 0 % 0 % 0 % 0 m²/s² 0 0 1.96
08:00 0 J/kg 0.4 K 0 % 0 % 0 % 0 m²/s² 0 0 2.71
09:00 0 J/kg 0.5 K 0 % 0 % 0 % 0 m²/s² 0 0 2.6
10:00 0 J/kg 0.9 K 0 % 0 % 0 % 0 m²/s² 0 0 3
11:00 0 J/kg 1.9 K 0 % 0 % 0 % 0 m²/s² 0 0 2.62
12:00 46 J/kg 2.0 K 0 % 0 % 0 % 0 m²/s² 0 0 5.39
13:00 60 J/kg 3.0 K 0 % 0 % 0 % 0 m²/s² 0 0 10.23
14:00 132 J/kg 4.0 K 0 % 0 % 0 % 0 m²/s² 0 0 7.12
15:00 186 J/kg 5.0 K 0 % 0 % 0 % 0 m²/s² 0 0 7.13
16:00 139 J/kg 6.5 K 0 % 0 % 0 % 0 m²/s² 0 0 7.37
17:00 68 J/kg 8.0 K 0 % 0 % 0 % 0 m²/s² 0 0 11.6
18:00 21 J/kg 10.0 K 0 % 0 % 0 % 0 m²/s² 0 0 15.97
19:00 2 J/kg 11.6 K 0 % 0 % 0 % 0 m²/s² 0 0 18.59
20:00 0 J/kg 12.3 K 0 % 0 % 0 % 0 m²/s² 0 0 21.78
21:00 0 J/kg 12.5 K 0 % 0 % 0 % 0 m²/s² 0 0 21.59
22:00 0 J/kg 12.4 K 0 % 0 % 0 % 0 m²/s² 0 0 19.93
23:00 0 J/kg 12.3 K 0 % 0 % 0 % 0 m²/s² 0 0 19.32
 08:21     18:40    Daglengte: 10:19 Zaterdag 21 Okt
00:00 0 J/kg 13.4 K 0 % 0 % 0 % 0 m²/s² 0 0 17.6
01:00 0 J/kg 12.2 K 0 % 0 % 0 % 0 m²/s² 0 0 13.61
02:00 0 J/kg 11.6 K 0 % 0 % 0 % 0 m²/s² 0 0 12.56
03:00 0 J/kg 11.6 K 0 % 0 % 0 % 0 m²/s² 0 0 12.05
04:00 0 J/kg 10.6 K 0 % 0 % 0 % 0 m²/s² 0 0 12.7
05:00 0 J/kg 5.7 K 0 % 0 % 0 % 0 m²/s² 0 0 7.8
Temp Baro Wind Neerslag
  EWN Forecast EWN WRFDA DWD ICON FMI HIRLAM MET Norway GFS
 08:16     18:46    Daglengte: 10:30 Vandaag
08:00 10.9° 1012.0 hPa 2.3 m/s 0.0 mm 9.5° 1011.7 hPa 2.5 m/s 0.0 mm 11.1° 1011.8 hPa 1.4 m/s 0.0 mm 11.6° 1013.4 hPa 2.6 m/s
11:00 14.1° 1011.8 hPa 3.2 m/s 0.0 mm 14.2° 1011.7 hPa 3.2 m/s 0.0 mm 13.8° 1011.4 hPa 2.8 m/s 0.0 mm 15.4° 1013.1 hPa 3.8 m/s
14:00 19.1° 1011.0 hPa 3.5 m/s 0.0 mm 19.5° 1011.0 hPa 4.4 m/s 0.0 mm 19.3° 1010.0 hPa 3.4 m/s 0.0 mm 19.7° 1012.7 hPa 4.2 m/s
17:00 20.6° 1009.9 hPa 3.9 m/s 0.0 mm 20.9° 1009.9 hPa 4.5 m/s 0.0 mm 21.1° 1008.2 hPa 4.0 m/s 0.0 mm 20.5° 1011.3 hPa 2.2 m/s
20:00 17.1° 1009.8 hPa 2.7 m/s 0.0 mm 17.4° 1009.9 hPa 3.1 m/s 0.0 mm 17.6° 1007.2 hPa 2.8 m/s 0.0 mm 16.4° 1011.6 hPa 2.9 m/s
23:00 14.8° 1009.6 hPa 2.7 m/s 0.0 mm 15.3° 1010.0 hPa 3.0 m/s 0.0 mm 14.8° 1005.8 hPa 2.8 m/s 0.0 mm 15.1° 1011.6 hPa 3.3 m/s
 08:18     18:44    Daglengte: 10:26 Morgen
02:00 13.7° 1008.8 hPa 3.1 m/s 0.0 mm 13.3° 1009.8 hPa 2.9 m/s 0.0 mm 13.6° 1002.8 hPa 3.9 m/s 0.0 mm 13.2° 1011.1 hPa 2.6 m/s
05:00 12.9° 1006.9 hPa 3.2 m/s 0.0 mm 11.9° 1007.9 hPa 3.2 m/s 0.0 mm 13.8° 999.5 hPa 5.0 m/s 0.0 mm 11.8° 1010.1 hPa 2.5 m/s
08:00 12.1° 1006.4 hPa 3.9 m/s 0.0 mm 11.5° 1007.3 hPa 3.8 m/s 0.0 mm 14.6° 999.5 hPa 5.8 m/s 0.0 mm 11.2° 1009.2 hPa 3.1 m/s
11:00 15.6° 1006.7 hPa 5.3 m/s 0.0 mm 16.3° 1007.4 hPa 4.9 m/s 0.0 mm 15.8° 1000.1 hPa 7.1 m/s 0.0 mm 16.0° 1008.9 hPa 4.9 m/s
14:00 19.1° 1005.5 hPa 6.2 m/s 0.0 mm 20.8° 1006.2 hPa 6.3 m/s 0.0 mm 16.9° 998.9 hPa 6.6 m/s 0.0 mm 19.8° 1007.5 hPa 6.4 m/s
17:00 20.4° 1004.0 hPa 5.6 m/s 0.0 mm 21.7° 1004.9 hPa 7.3 m/s 0.0 mm 17.5° 996.9 hPa 5.3 m/s 0.0 mm 20.6° 1006.3 hPa 5.8 m/s
20:00 17.4° 1004.0 hPa 4.3 m/s 0.0 mm 17.4° 1005.3 hPa 2.9 m/s 0.0 mm 16.1° 994.8 hPa 4.1 m/s 0.0 mm 17.2° 1006.9 hPa 5.4 m/s
23:00 17.3° 1008.8 hPa 3.8 m/s 0.0 mm 17.2° 1006.1 hPa 3.1 m/s 0.4 mm 14.7° 1008.5 hPa 5.1 m/s
 08:20     18:42    Daglengte: 10:22 Vrijdag 20 Okt
02:00 15.6° 1007.8 hPa 4.9 m/s 0.0 mm 13.8° 1006.2 hPa 3.4 m/s 1.0 mm 13.9° 1009.0 hPa 5.5 m/s
05:00 15.5° 1007.2 hPa 6.0 m/s 0.0 mm 14.4° 1006.1 hPa 4.9 m/s 1.0 mm 13.6° 1008.1 hPa 6.0 m/s
08:00 15.4° 1007.0 hPa 7.6 m/s 0.0 mm 14.4° 1005.4 hPa 5.7 m/s 1.0 mm 13.9° 1007.6 hPa 7.0 m/s
11:00 16.6° 1006.1 hPa 7.2 m/s 1.0 mm 16.6° 1006.1 hPa 7.2 m/s 1.0 mm 15.4° 1008.2 hPa 8.8 m/s
14:00 18.1° 1006.1 hPa 8.0 m/s 1.0 mm 18.1° 1006.1 hPa 8.0 m/s 1.0 mm 14.8° 1009.5 hPa 6.8 m/s
17:00 17.1° 1007.0 hPa 7.8 m/s 2.8 mm 17.1° 1007.0 hPa 7.8 m/s 2.8 mm 16.3° 1010.3 hPa 6.0 m/s
20:00 12.7° 1009.4 hPa 3.6 m/s 2.4 mm 12.7° 1009.4 hPa 3.6 m/s 2.4 mm 13.8° 1011.4 hPa 3.7 m/s
23:00 12.3° 1009.7 hPa 4.0 m/s 3.6 mm 12.3° 1009.7 hPa 4.0 m/s 3.6 mm 11.4° 1011.3 hPa 3.6 m/s
 08:21     18:40    Daglengte: 10:19 Zaterdag 21 Okt
02:00 11.0° 1008.6 hPa 5.0 m/s 3.6 mm 11.0° 1008.6 hPa 5.0 m/s 3.6 mm 12.7° 1009.8 hPa 4.9 m/s
05:00 11.6° 1006.5 hPa 6.9 m/s 3.6 mm 11.6° 1006.5 hPa 6.9 m/s 3.6 mm 14.9° 1007.9 hPa 6.4 m/s
08:00 12.8° 1006.3 hPa 7.6 m/s 5.5 mm 12.8° 1006.3 hPa 7.6 m/s 5.5 mm 15.1° 1007.4 hPa 7.7 m/s
11:00 14.6° 1008.5 hPa 6.2 m/s 1.0 mm 14.6° 1008.5 hPa 6.2 m/s 1.0 mm
14:00 16.5° 1008.6 hPa 9.9 m/s 1.0 mm 16.5° 1008.6 hPa 9.9 m/s 1.0 mm
17:00 15.7° 1008.1 hPa 8.7 m/s 0.0 mm 15.7° 1008.1 hPa 8.7 m/s 0.0 mm
20:00 13.8° 1008.8 hPa 8.2 m/s 0.0 mm 13.8° 1008.8 hPa 8.2 m/s 0.0 mm
23:00 12.6° 1009.6 hPa 9.3 m/s 0.0 mm 12.6° 1009.6 hPa 9.3 m/s 0.0 mm
 08:23     18:38    Daglengte: 10:15 Zondag 22 Okt
02:00 11.7° 1010.6 hPa 8.9 m/s 0.0 mm 11.7° 1010.6 hPa 8.9 m/s 0.1 mm
05:00 11.1° 1011.1 hPa 7.9 m/s 0.2 mm 11.1° 1011.1 hPa 7.9 m/s 0.2 mm
08:00 10.4° 1012.7 hPa 7.1 m/s 0.3 mm 10.4° 1012.7 hPa 7.1 m/s 0.3 mm
11:00 12.2° 1015.5 hPa 7.3 m/s 0.0 mm 12.2° 1015.5 hPa 7.3 m/s 0.1 mm
14:00 13.3° 1017.3 hPa 8.2 m/s 0.0 mm 13.3° 1017.3 hPa 8.2 m/s 0.1 mm
17:00 12.7° 1018.8 hPa 5.4 m/s 0.0 mm 12.7° 1018.8 hPa 5.4 m/s 0.1 mm
20:00 10.8° 1020.6 hPa 3.8 m/s 0.4 mm 10.8° 1020.6 hPa 3.8 m/s 0.4 mm
23:00 8.7° 1021.8 hPa 3.5 m/s 0.0 mm 8.7° 1021.8 hPa 3.6 m/s 0.1 mm
 08:25     18:36    Daglengte: 10:11 Maandag 23 Okt
02:00 8.6° 1021.9 hPa 4.6 m/s 0.0 mm 8.6° 1021.9 hPa 4.6 m/s 0.1 mm
05:00 9.5° 1021.7 hPa 5.9 m/s 0.0 mm 9.5° 1021.7 hPa 5.9 m/s 0.0 mm
08:00 10.0° 1021.5 hPa 6.5 m/s 0.8 mm 10.0° 1021.5 hPa 6.5 m/s 0.8 mm
11:00 10.6° 1021.6 hPa 7.5 m/s 3.1 mm 10.6° 1021.6 hPa 7.5 m/s 3.1 mm
14:00 12.3° 1020.7 hPa 7.9 m/s 3.4 mm 12.3° 1020.7 hPa 7.9 m/s 3.4 mm
17:00 13.3° 1019.7 hPa 6.4 m/s 0.0 mm 13.3° 1019.7 hPa 6.4 m/s 0.0 mm
20:00 13.2° 1019.5 hPa 5.9 m/s 0.0 mm 13.2° 1019.5 hPa 5.9 m/s 0.0 mm
23:00 12.5° 1019.3 hPa 6.3 m/s 0.0 mm 12.5° 1019.3 hPa 6.3 m/s 0.0 mm
 08:26     18:34    Daglengte: 10:08 Dinsdag 24 Okt
02:00 11.6° 1018.6 hPa 6.3 m/s 0.0 mm 11.6° 1018.6 hPa 6.3 m/s 0.0 mm
05:00 10.9° 1018.1 hPa 5.8 m/s 0.0 mm 10.9° 1018.1 hPa 5.8 m/s 0.0 mm
08:00 9.9° 1017.8 hPa 5.5 m/s 0.0 mm 9.9° 1017.8 hPa 5.5 m/s 0.0 mm
11:00 12.1° 1018.3 hPa 5.9 m/s 0.0 mm 12.1° 1018.3 hPa 5.9 m/s 0.0 mm
14:00 15.7° 1017.6 hPa 5.1 m/s 0.0 mm 15.7° 1017.6 hPa 5.1 m/s 0.0 mm
17:00 15.9° 1016.8 hPa 3.7 m/s 0.0 mm 15.9° 1016.8 hPa 3.7 m/s 0.0 mm
20:00 12.6° 1017.3 hPa 3.2 m/s 0.0 mm 12.6° 1017.3 hPa 3.2 m/s 0.0 mm
23:00 11.8° 1017.4 hPa 3.3 m/s 0.0 mm 11.8° 1017.4 hPa 3.3 m/s 0.0 mm
 08:28     18:33    Daglengte: 10:05 Woensdag 25 Okt
02:00 12.1° 1016.5 hPa 3.4 m/s 0.0 mm 12.1° 1016.5 hPa 3.4 m/s 0.0 mm
05:00 11.1° 1015.7 hPa 3.7 m/s 0.0 mm 11.1° 1015.7 hPa 3.7 m/s 0.0 mm
08:00 9.6° 1015.7 hPa 3.7 m/s 0.0 mm 9.6° 1015.7 hPa 3.7 m/s 0.0 mm
14:00 16.9° 1016.1 hPa 4.9 m/s 0.0 mm 16.9° 1016.1 hPa 4.9 m/s 0.0 mm
20:00 13.4° 1016.9 hPa 2.9 m/s 0.0 mm 13.4° 1016.9 hPa 2.9 m/s 0.0 mm
 08:30     18:31    Daglengte: 10:01 Donderdag 26 Okt
02:00 12.1° 1016.6 hPa 3.5 m/s 0.0 mm 12.1° 1016.6 hPa 3.5 m/s 0.0 mm
08:00 13.2° 1014.8 hPa 5.3 m/s 0.0 mm 13.2° 1014.8 hPa 5.3 m/s 0.0 mm
14:00 19.1° 1014.1 hPa 6.1 m/s 0.0 mm 19.1° 1014.1 hPa 6.1 m/s 0.0 mm
20:00 16.0° 1011.1 hPa 5.2 m/s 0.0 mm 16.0° 1011.1 hPa 5.2 m/s 0.0 mm
 08:32     18:29    Daglengte: 9:57 Vrijdag 27 Okt
02:00 15.8° 1010.0 hPa 4.5 m/s 0.0 mm 15.8° 1010.0 hPa 4.5 m/s 0.0 mm
08:00 16.0° 1011.0 hPa 5.0 m/s 0.2 mm 16.0° 1011.0 hPa 5.0 m/s 0.2 mm
14:00 18.4° 1013.4 hPa 5.7 m/s 0.0 mm 18.4° 1013.4 hPa 5.7 m/s 0.0 mm
20:00 13.4° 1014.6 hPa 3.1 m/s 0.7 mm
 08:33     18:27    Daglengte: 9:54 Zaterdag 28 Okt
02:00 11.8° 1013.9 hPa 3.3 m/s 0.9 mm
08:00 10.6° 1012.5 hPa 3.2 m/s 1.1 mm
14:00 14.9° 1011.7 hPa 3.7 m/s 0.8 mm
20:00 12.3° 1009.9 hPa 3.1 m/s 0.3 mm
 08:35     18:25    Daglengte: 9:50 Zondag 29 Okt
02:00 11.4° 1009.2 hPa 3.4 m/s 0.9 mm
07:00 10.2° 1008.8 hPa 2.7 m/s 0.9 mm
13:00 14.3° 1009.9 hPa 3.0 m/s 0.3 mm
19:00 10.8° 1010.8 hPa 1.8 m/s 0.6 mm
 08:37     18:23    Daglengte: 9:46 Maandag 30 Okt
01:00 9.7° 1011.8 hPa 2.5 m/s 0.2 mm
07:00 8.9° 1011.8 hPa 2.3 m/s 0.6 mm
13:00 13.2° 1012.8 hPa 2.8 m/s 0.6 mm
19:00 10.3° 1013.6 hPa 1.7 m/s 0.5 mm
 08:38     18:21    Daglengte: 9:43 Dinsdag 31 Okt
01:00 9.2° 1014.5 hPa 2.5 m/s 0.3 mm
07:00 8.5° 1014.2 hPa 2.7 m/s 0.2 mm
13:00 13.1° 1013.9 hPa 3.1 m/s 0.4 mm
19:00 10.0° 1013.1 hPa 2.1 m/s 0.7 mm
 08:40     18:20    Daglengte: 9:40 Woensdag 01 Nov
01:00 8.9° 1013.0 hPa 2.9 m/s 0.9 mm
07:00 8.0° 1012.1 hPa 2.5 m/s 0.8 mm
13:00 12.6° 1011.9 hPa 3.1 m/s 0.7 mm
19:00 9.6° 1011.3 hPa 2.1 m/s 1.2 mm
 08:42     18:18    Daglengte: 9:36 Donderdag 02 Nov
01:00 8.3° 1010.7 hPa 2.5 m/s 0.5 mm
FMI Hirlam - 7.5 km EWN WRFDA - 12 km DWD ICON - 7 km GFS - 25 km Basiskaart






























































Updatetijd (Europe/Brussels) Resolutie Lengte Stap
FMI Hirlam 22:30, 04:30, 10:30, 16:30 7.5 km 49h 1h
EWN WRFDA 03:15, 09:15, 15:15, 21:15 12 km 73h 1h
DWD ICON 01:00, 07:00, 13:00, 19:00 7 km 75h 1h
GFS 03:15, 09:15, 15:15, 21:15 25 km 237h 3h
30+ mm
25-30 mm
20-25 mm
15-20 mm
10-15 mm
6-10 mm
4-6 mm
2-4 mm
1-2 mm
0.5-1 mm
0.2-0.5 mm
0.1-0.2 mm
30+ mm
25-30 mm
20-25 mm
15-20 mm
10-15 mm
6-10 mm
4-6 mm
2-4 mm
1-2 mm
0.5-1 mm
0.2-0.5 mm
0.1-0.2 mm
Sneeuwval
Natte sneeuw
Hagel
Vorst
30+ mm
25-30 mm
20-25 mm
15-20 mm
10-15 mm
6-10 mm
4-6 mm
2-4 mm
1-2 mm
0.5-1 mm
0.2-0.5 mm
0.1-0.2 mm
Sneeuwval
Natte sneeuw
Hagel
Vorst
Onweer
50 mm
40 mm
30 mm
26 mm
22 mm
18 mm
14 mm
10 mm
9 mm
8 mm
7 mm
6 mm
5 mm
4.5 mm
4 mm
3.5 mm
3 mm
2.5 mm
2 mm
1.5 mm
1 mm
0.8 mm
0.6 mm
0.4 mm
0.2 mm
0.05 mm
35°
30°
25°
20°
15°
10°
-5°
-10°
-15°
-20°
-25°
-30°
-35°
33> m/s
29 m/s
25 m/s
21 m/s
17 m/s
14 m/s
11 m/s
8 m/s
5 m/s
3 m/s
0 m/s
2600 J/kg
2400 J/kg
2200 J/kg
2000 J/kg
1800 J/kg
1600 J/kg
1400 J/kg
1200 J/kg
1000 J/kg
800 J/kg
600 J/kg
400 J/kg
200 J/kg
70 dBZ
65 dBZ
60 dBZ
55 dBZ
50 dBZ
45 dBZ
40 dBZ
35 dBZ
30 dBZ
25 dBZ
20 dBZ
15 dBZ
10 dBZ
5 dBZ
-1 K
-2 K
-3 K
-4 K
-5 K
-6 K
-7 K
-8 K
-9 K
950 m²/s²
900 m²/s²
850 m²/s²
800 m²/s²
750 m²/s²
700 m²/s²
650 m²/s²
600 m²/s²
550 m²/s²
500 m²/s²
450 m²/s²
400 m²/s²
350 m²/s²
300 m²/s²
250 m²/s²
200 m²/s²
150 m²/s²
100 m²/s²
46 m/s
44 m/s
42 m/s
40 m/s
38 m/s
36 m/s
34 m/s
32 m/s
30 m/s
28 m/s
26 m/s
24 m/s
22 m/s
20 m/s
16 m/s
12 m/s
8 m/s
4 m/s
30 m/s
28 m/s
26 m/s
24 m/s
22 m/s
20 m/s
18 m/s
16 m/s
14 m/s
12 m/s
10 m/s
8 m/s
6 m/s
4 m/s
2 m/s
3.0
2.8
2.6
2.4
2.2
2.0
1.8
1.6
1.4
1.2
1.0
0.8
0.6
0.4
0.2
15
14
13
12
11
10
9
8
7
6
5
4
3
2
1
90%
80%
70%
60%
50%
40%
30%
20%
10%
42
40
38
36
34
32
30
28
26
24
22
20
18
16
14
12
90+ cm
80-90 cm
70-80 cm
60-70 cm
50-60 cm
40-50 cm
30-40 cm
20-30 cm
10-20 cm
1-10 cm
Sneeuwval
Natte sneeuw
Regen
>120 mm
115 mm
110 mm
105 mm
100 mm
95 mm
90 mm
85 mm
80 mm
75 mm
70 mm
65 mm
60 mm
55 mm
50 mm
45 mm
45 mm
40 mm
35 mm
30 mm
25 mm
20 mm
15 mm
10 mm
5 mm
0.1 mm
960 hPa
880 hPa
800 hPa
720 hPa
640 hPa
560 hPa
584 gpdm
568 gpdm
552 gpdm
536 gpdm
520 gpdm
504 gpdm
488 gpdm
Extreem zwaar Noodweer Kans op onweer
15% 15% 5% 50% 15%

Dag




Kaart






35°
30°
25°
20°
15°
10°
-5°
-10°
-15°
-20°
-25°
-30°
-35°
33> m/s
29 m/s
25 m/s
21 m/s
17 m/s
14 m/s
11 m/s
8 m/s
5 m/s
3 m/s
0 m/s
Extreem zwaar Noodweer Kans op onweer
15% 15% 5% 50% 15%
>120 mm
115 mm
110 mm
105 mm
100 mm
95 mm
90 mm
85 mm
80 mm
75 mm
70 mm
65 mm
60 mm
55 mm
50 mm
45 mm
45 mm
40 mm
35 mm
30 mm
25 mm
20 mm
15 mm
10 mm
5 mm
0.1 mm
Onweer risico kaarten - De groene en gele kleur geeft de kans op onweer aan binnen 40 km van een punt. Oranje, rood en violet hebben hetzelfde niveau zoals je het ziet op estofex.org waaronder ook de kans op hagel en supercells.

dBZ - dBZ staat voor decibel ten opzichte van Z.

Cape - Convective available potential energy (CAPE), is de totale hoeveelheid energie die een luchtpakketje nodig heeft om zover mogelijk te stijgen in de atmosfeer.

K Index - K-Index wordt berekend door de Vertical Totals (VT) en het verschil tussen de 850 hPa temperatuur en de 700 hPa dauwpuntsdepressie (Tdd 700) bij elkaar op te tellen.

TT Index - Convectie index wordt gebruikt voor het voorspellen van zware buien of onweer.

WRF - The Weather Research and Forecasting (WRF) is een volgende generatie mesoscale numeriek weersvoorspelling systeem ontworpen om zowel de operationele planning als het atmosferisch onderzoek te dienen. WRF is a cooperatie tussen het National Center for Atmospheric Research (NCAR), National Centers for Environmental Prediction (NCEP), Forecast Systems Laboratory (FSL), Air Force Weather Agency (AFWA), Naval Research Laboratory, University of Oklahoma, en de Federal Aviation Administration (FAA). Deze software draait op onze server.

WRFDA - Een meer geavanceerde versie van WRF

Arome - Het 2.5 km Arome model. Verzorgd door het Noors Meteorologisch Instituut.

MET Norway - De proff-default 4km meteorological data is een beste keus selectie van meteorologische modellen gebruikt door met.no die zijn geïnterpoleerd tot een gemeenschappelijke dataset. Verzorgd door het Noorse Meteorologisch Instituut.

SMHI - Het Hirlam model verzorgd door het Zweeds meteorologisch instituut.

FMI - Het Hirlam model verzorgd door het Fins meteorologisch instituut. Dekking alleen Finland.

GFS - Het Global Forecast Systeem (GFS) is een wereldwijd numerieke weersvoorspelling computermodel, gerund door NOAA.

GEM-GDPS - Het GEM-GDPS is a wereldwijd numeriek weersvoorspelling computermodel verzorgd door het Canadees Meteorologisch Centrum.

Credits/Info: Dank aan Stefan Gofferje van sääkeskus.fi voor enkele formules van GrADS. Info: Wikipedia.

Betrouwbaarheid van de verwachting

NB! 2015-03-29: Rebuilding the accuracy-test!

EWNACC
Day 1 Good forecasts

Dag 1 Tmax

Dag 2 Tmax

Geladen verwachtingen TOP 50

Totaal geladen verwachtingen:
Plaats Latitude Longitude Verwachtingen Plaats Latitude Longitude Verwachtingen
De waarden zijn gebaseerd op numerieke modellen. We proberen ze zo nauwkeurig mogelijk te krijgen, maar het echte weer is afhankelijk van allerlei fenomenen die niet automatisch kunnen worden opgehaald. Daarom, wanneer een waarde hoog is (bijv. Onweer kans), is dit niet een belofte dat het zal gebeuren!

De EWN-Weersverwachting gebruikt meerdere gratis bronnen voor de verwachting.
Daarnaast gebruiken we een eigen versie van WRFDA-EMS op 12 km resolutie die in de statistieken worden opgenomen. De kaarten zijn ook gegenereerd uit de WRFDA EMS-gegevens.

In de weersverwachting zijn inhoud en gegevens gebruikt van:
NCEP (GFS), The Canadian Meteorological Center (GEM-GDPS), Norwegian Meteorological Institute (MET Norway), Swedish Meteorological and Hydrological Institute (SMHI), Finnish meteorological institute (FMI), Temis (UV-forecast), Geonames, WXSIM - near private weatherstations with the WXSIM-software.
Creative Commons -lisenssi © 2017 European Weathernetwork. Script by Henkka, nordicweather.net with help from Oebel (weerstation-assen.nl), Henrik (silkeborg-vejret.dk), Alex (lokaltvader.se), Stefan (Wetterstation-Johanngeorgenstadt) and Daniel (wetterdienst.de). Reusage without permission forbidden.
Except where otherwise noted, content on this page is licensed under a Creative Commons Attribution 3.0 License.

U vindt ons ook hier:


UK Metoffice

European Weather Network

WeatherCloud

Weather Underground

AWEKAS

WeatherlinkIP

Citizen Weather Observer Program (CWOP)

HAMweather, WeatherForYou, PWS Weather

Wetterpage 24

 

Apparatuur in gebruik:


Weerstation
Davis VP2

Weerprogramma
Cumulus

Weercomputer
My Computer

Webleverancier
My provider

Davis VP2

Cumulus

My Computer

My provider